Regional Weather Roundup
Issued by NWS Green Bay, WI

Home | Current Version | Previous Version | Graphics & Text | Print | Product List | Glossary Off
Versions: 1 2 3 4 5 6 7 8 9 10 11 12 13 14 15 16 17 18 19 20 21 22 23 24 25 26 27 28 29 30 31 32 33 34 35 36 37 38 39 40 41 42 43 44 45 46 47 48 49 50

000
ASUS43 KGRB 271601
RWRGRB

NORTH-CENTRAL AND NORTHEAST WISCONSIN REGIONAL WEATHER ROUNDUP
NATIONAL WEATHER SERVICE GREEN BAY WI
1100 AM CDT THU JUL 27 2017

WIZ005-009-010>012-018-019-271700-
NORTH CENTRAL WISCONSIN

CITY           SKY/WX    TMP DP  RH WIND       PRES   REMARKS
IRONWOOD       SUNNY     76  60  57 VRB6      30.10S HAZE
MANITOWISH WTR NOT AVBL
ARBOR VITAE    NOT AVBL
EAGLE RIVER    NOT AVBL
LAND O LAKES   MOSUNNY   76  56  50 N6        30.11S
RHINELANDER    SUNNY     75  57  53 VRB7      30.10R
PHILLIPS       SUNNY     75  60  58 E3        30.09S
ANTIGO         MOSUNNY   74  59  59 E7        30.08S
TOMAHAWK       NOT AVBL
MERRILL        NOT AVBL
$$

WIZ013-073-271700-
NORTHEAST WISCONSIN

CITY           SKY/WX    TMP DP  RH WIND       PRES   REMARKS
IRON MOUNTAIN  SUNNY     76  56  49 VRB6      30.06S
MARINETTE      SUNNY     72  62  71 E10       30.05R
$$

WIZ017-030-035>037-045-271700-
CENTRAL WISCONSIN

CITY           SKY/WX    TMP DP  RH WIND       PRES   REMARKS
MEDFORD        NOT AVBL
WAUSAU         SUNNY     76  59  55 E12       30.04F
MOSINEE        MOSUNNY   75  61  60 E7        30.07S
MARSHFIELD     SUNNY     78  61  55 NE8       30.06R
WISC RAPIDS    SUNNY     80  60  50 E8        30.06R
STEVENS POINT  NOT AVBL
WAUPACA        NOT AVBL
SHAWANO        SUNNY     78  60  53 NE8       30.04S
CLINTONVILLE   SUNNY    N/A N/A N/A E7        30.04S
WAUTOMA        SUNNY     78  61  55 NE6       30.03S
$$

WIZ038-039-048-051-271700-
FOX VALLEY

CITY           SKY/WX    TMP DP  RH WIND       PRES   REMARKS
NWS GREEN BAY  SUNNY     77  67  71 NE9       30.03S
APPLETON       SUNNY     75  57  53 NE12      30.02R
OSHKOSH        SUNNY     75  63  66 NE12      30.02S
FOND DU LAC    SUNNY     77  59  53 NE10      30.02S
$$

WIZ022-050-052-271700-
EAST CENTRAL WISCONSIN

CITY           SKY/WX    TMP DP  RH WIND       PRES   REMARKS
EPHRAIM        NOT AVBL
WASHINGTON ISL PTSUNNY   69  61  75 NE9       30.03S
STURGEON BAY     N/A     73  65  75 N8        30.04R
MANITOWOC      NOT AVBL
SHEBOYGAN      SUNNY     75  62  64 NE15      30.01S
$$

LMZ563-521-522-541>543-271700-
LAKESHORE

STATION/POSITION TIME  TEMP    WIND        PRES    VSBY  WAVE
                       AIR SEA DIR/SP/G                  HT/PER
                 (UTC) (F)     (DEG/KT/KT) (MB)    (MI)  (FT/S)
SHEBOYGAN LKSHOR 1500   69      10/ 13/ 14 1015.7R
KEWAUNEE LKSHORE 1530   70      20/  6/ 11 1016.0R
NORTHPORT PIER   1540   69      70/  8/ 10 1016.9S
N MID LAKE BUOY  1450   65 66   50/  8/ 10 1017.1R         1/ 3
S GREEN BAY BUOY 1530   69 71   50/ 12/ 14 1016.8R
SISTER BAY LKSHO 1502   72     340/ 10/ 12   N/A
CHAMBERS ISLAND  1540   69      10/ 11/ 12 1016.6R
MENOMINEE LKSHOR 1530   69      30/ 11/ 12 1017.0R
$$




USA.gov is the U.S. government's official web portal to all federal, state and local government web resources and services.